"Pseudo-MPEC" for C0E8WL5

Created 2022 Nov 26 9:22:06 UT using Find_Orb

Click here for an explanation of pseudo-MPECs

 
 Astrometry: 
     C0E8WL5* C2022 11 24(;14b\7]??Ny?W%N?ZAstrometryY.cGlredacted;3lp;?Dd!_DV00
     C0E8WL5  C2022 11 242M-IDh]rAW)F+clickHZWDeI12sL+=k,V5r]vA@c9m*pv+UE?sV=V00
     C0E8WL5  C2022 11 249%OKSU0pF'6hdfdhere@aMZT2**q:O6g+Te]+r8;h91I)4odT0khV00
     C0E8WL5  C2022 11 24dWMIforNgxeT^s5#V@un6=a!Aj!U`?cpeR5BY8qF6\NU5+10ZYRAV00
     C0E8WL5 KC2022 11 24.40867 04 04 24.80 +14 34 51.3    ~BOBM 21.7 RoNEOCP291
     C0E8WL5 KC2022 11 24.41616 04 04 24.52 +14 34 56.7    ~BOBM 22.0 RoNEOCP291
     C0E8WL5 KC2022 11 25.19129404 04 03.730+14 44 04.70   ~BP57 21.08GVNEOCPV06
     C0E8WL5 KC2022 11 25.19447004 04 03.530+14 44 07.40   ~BP57 20.83GVNEOCPV06
     C0E8WL5 KC2022 11 25.19764604 04 03.480+14 44 09.20   ~BP57 21.16GVNEOCPV06
     C0E8WL5 KC2022 11 25.20389 04 04 03.24 +14 44 14.2    ~BP67 21.7 RoNEOCP291
     C0E8WL5 KC2022 11 25.21587 04 04 02.84 +14 44 23.1    ~BP67 21.9 RoNEOCP291
     C0E8WL5 KC2022 11 26.19734504 03 34.549+14 56 06.61   ~BQ57 22.71GVNEOCPV06
     C0E8WL5 KC2022 11 26.19962304 03 34.474+14 56 08.16   ~BQ57 22.00GVNEOCPV06
     C0E8WL5 KC2022 11 26.20190104 03 34.412+14 56 10.10   ~BQ57 21.94GVNEOCPV06
     C0E8WL5 KC2022 11 26.20417804 03 34.326+14 56 11.40   ~BQ57       VNEOCPV06
     C0E8WL5 KC2022 11 26!s1W(Kvkvawe*V#UVm7WvFF'1VD0ne2AQiIV?n,[lq?NtYBej16yH21
     C0E8WL5 KC2022 11 26vGo@W=`i^k2aGRVT3%,$T7vk'nexplanationVrG,?=P4fts1,ZYH21

Station data:
(291) LPL/Spacewatch II  (N31.961669 W111.599905)  US/Arizona.  Observers J.
   V. Scotti, R. S. McMillan. 1.8-m f/2.7 reflector + CCD.
(H21) Astronomical Research Observatory, Westfield  (N39.483054 W87.968270)
   US/Illinois.  Observer R. Holmes. Measurers S. Foglia, L. Buzzi, T.
   Linder, R. Holmes. 0.76-m f/3.0 astrograph + CCD0.81-m f/4.0 astrograph +
   CCD0.61-m f/4.5 astrograph + CCD0.40-m f/5.32 astrograph + CCD.
(V00) Kitt Peak-Bok  (N31.963125 W111.600190)  US/Arizona.  Observers T. A.
   Pruyne, B. M. Africano, E. J. Christensen, G. A. Farneth, D. C. Fuls, A.
   R. Gibbs, A. D. Grauer, H. Gröller, J. A. Johnson, R. A. Kowalski, S. M.
   Larson, G. J. Leonard, D. Rankin, R. L. Seaman, F. C. Shelly, K. W.
   Wierzchoś. 2.25-m reflector + CCD.
(V06) Catalina Sky Survey-Kuiper  (N32.416844 W110.732550)  US/Arizona.
   Observers T. A. Pruyne, B. M. Africano, E. J. Christensen, G. A. Farneth,
   D. C. Fuls, A. R. Gibbs, A. D. Grauer, H. Gröller, J. A. Johnson, R. A.
   Kowalski, S. M. Larson, G. J. Leonard, D. Rankin, R. L. Seaman, F. C.
   Shelly, K. W. Wierzchoś. 1.55-m reflector + CCD.

Orbital elements:  C0E8WL5
   Perihelion 2022 Nov 26.09984 +/- 16.7 TT =  2:23:46 (JD 2459909.59984)
Epoch 2022 Nov 26.0 TT = JDT 2459909.5   Earth MOID: 0.4226   Ma: 0.0583
M 359.97026391 +/- 4.6              (J2000 ecliptic)          AutoNEOCP
n   0.29783798 +/- 0.0496           Peri.  342.23566 +/- 12
a   2.22066302 +/- 0.247            Node    80.67135 +/- 1.0
e   0.3658386 +/- 0.0484            Incl.    5.63438 +/- 0.8
P   3.31                   H 22.9   G  0.15   U 10.7  SR
q 1.40825868 +/- 0.0586    Q 3.03306737 +/- 0.527
From 17 observations 2022 Nov. 24-26 (46.1 hr); mean residual 0".34
Residuals in arcseconds: 
221124 V00  .29-  .38+    221125 V06  .63+  .59-    221126 V06  .04-  .02-    
221124 V00  .28-  .33+    221125 V06  .67-  .20-    221126 V06  .22+  .24+    
221124 V00  .43-  .03+    221125 V06  .22+  .72-    221126 V06  .13+  .14-    
221124 V00  .04+  .16+    221125 291  .35-  .38-    221126 H21  .05-  .35+    
221124 291  .70+  .01-    221125 291  .02-  .20-    221126 H21  .10-  .42+    
221124 291  .41+  .25+    221126 V06  .12-  .11+    

Ephemerides (geocentric):
Date (UTC) HH   RA             Dec           delta  r     elong  mag " sig PA
---- --------  ------------   ------------  ------ ------ -----  --- --------
2022 11 26 09  04 03 28.716   +14 58 21.80  .42285 1.4083 174.0 22.1 1.84  47
2022 11 26 10  04 03 27.514   +14 58 51.94  .42287 1.4083 174.0 22.1 1.96  48
2022 11 26 11  04 03 26.311   +14 59 22.08  .42288 1.4083 174.0 22.1 2.09  49
2022 11 26 12  04 03 25.109   +14 59 52.25  .42289 1.4083 174.0 22.1 2.23  50
2022 11 26 13  04 03 23.907   +15 00 22.43  .42290 1.4083 174.0 22.1 2.39  51
2022 11 26 14  04 03 22.705   +15 00 52.62  .42292 1.4083 174.0 22.1 2.55  52
2022 11 26 15  04 03 21.504   +15 01 22.83  .42293 1.4083 174.0 22.1 2.72  53
2022 11 26 16  04 03 20.302   +15 01 53.06  .42294 1.4083 174.0 22.1 2.91  54
2022 11 26 17  04 03 19.101   +15 02 23.30  .42296 1.4083 174.0 22.1 3.10  55
2022 11 26 18  04 03 17.901   +15 02 53.56  .42297 1.4083 173.9 22.1 3.30  55
2022 11 26 19  04 03 16.700   +15 03 23.83  .42298 1.4083 173.9 22.1 3.51  56
2022 11 26 20  04 03 15.500   +15 03 54.12  .42300 1.4083 173.9 22.1 3.73  56
2022 11 26 21  04 03 14.300   +15 04 24.42  .42301 1.4083 173.9 22.1 3.95  56
2022 11 26 22  04 03 13.101   +15 04 54.74  .42303 1.4083 173.9 22.1 4.19  57
2022 11 26 23  04 03 11.902   +15 05 25.07  .42305 1.4083 173.9 22.1 4.43  57
2022 11 27 00  04 03 10.703   +15 05 55.42  .42306 1.4083 173.9 22.1 4.68  57
2022 11 27 01  04 03 09.505   +15 06 25.79  .42308 1.4083 173.9 22.1 4.94  58
2022 11 27 02  04 03 08.307   +15 06 56.17  .42309 1.4083 173.9 22.1 5.20  58
2022 11 27 03  04 03 07.109   +15 07 26.56  .42311 1.4083 173.8 22.1 5.47  58
2022 11 27 04  04 03 05.912   +15 07 56.97  .42313 1.4083 173.8 22.1 5.75  58
2022 11 27 05  04 03 04.716   +15 08 27.39  .42314 1.4083 173.8 22.1 6.03  58
2022 11 27 06  04 03 03.519   +15 08 57.83  .42316 1.4083 173.8 22.1 6.33  59
2022 11 27 07  04 03 02.323   +15 09 28.29  .42318 1.4083 173.8 22.1 6.63  59
2022 11 27 08  04 03 01.128   +15 09 58.76  .42320 1.4083 173.8 22.1 6.93  59
2022 11 27 09  04 02 59.933   +15 10 29.24  .42322 1.4083 173.8 22.1 7.25  59
2022 11 27 10  04 02 58.739   +15 10 59.74  .42323 1.4083 173.8 22.1 7.57  59
2022 11 27 11  04 02 57.545   +15 11 30.25  .42325 1.4083 173.7 22.1 7.90  59
2022 11 27 12  04 02 56.351   +15 12 00.78  .42327 1.4083 173.7 22.1 8.23  59
2022 11 27 13  04 02 55.158   +15 12 31.33  .42329 1.4083 173.7 22.1 8.57  59
2022 11 27 14  04 02 53.966   +15 13 01.88  .42331 1.4083 173.7 22.1 8.92  59
2022 11 27 15  04 02 52.774   +15 13 32.45  .42333 1.4083 173.7 22.1 9.27  60
2022 11 27 16  04 02 51.583   +15 14 03.04  .42335 1.4083 173.7 22.1 9.63  60
2022 11 27 17  04 02 50.392   +15 14 33.64  .42337 1.4083 173.6 22.1 10.0  60
2022 11 27 18  04 02 49.202   +15 15 04.26  .42339 1.4083 173.6 22.1 10.4  60
2022 11 27 19  04 02 48.012   +15 15 34.89  .42341 1.4083 173.6 22.1 10.8  60
2022 11 27 20  04 02 46.823   +15 16 05.53  .42344 1.4083 173.6 22.1 11.1  60
2022 11 27 21  04 02 45.635   +15 16 36.19  .42346 1.4083 173.6 22.1 11.5  60
2022 11 27 22  04 02 44.447   +15 17 06.86  .42348 1.4083 173.6 22.1 11.9  60
2022 11 27 23  04 02 43.260   +15 17 37.55  .42350 1.4084 173.5 22.1 12.4  60
2022 11 28 00  04 02 42.073   +15 18 08.25  .42352 1.4084 173.5 22.1 12.8  60
2022 11 28 01  04 02 40.887   +15 18 38.97  .42355 1.4084 173.5 22.1 13.2  60
2022 11 28 02  04 02 39.702   +15 19 09.70  .42357 1.4084 173.5 22.1 13.6  60
2022 11 28 03  04 02 38.517   +15 19 40.44  .42359 1.4084 173.5 22.1 14.1  60
2022 11 28 04  04 02 37.334   +15 20 11.20  .42362 1.4084 173.4 22.1 14.5  60
2022 11 28 05  04 02 36.150   +15 20 41.97  .42364 1.4084 173.4 22.1 14.9  60
2022 11 28 06  04 02 34.968   +15 21 12.76  .42366 1.4084 173.4 22.1 15.4  60
2022 11 28 07  04 02 33.786   +15 21 43.56  .42369 1.4084 173.4 22.1 15.9  60
2022 11 28 08  04 02 32.605   +15 22 14.37  .42371 1.4084 173.4 22.1 16.3  60